Weather History for Perry, IA

Change the Weather History Date:

Sunday, March 10, 2013

  Actual Average Record
Temperature  
Mean Temperature 32 °F -  
Max Temperature 38 °F 43 °F 71 °F (1986)
Min Temperature 27 °F 23 °F 0 °F (1984)
Degree Days  
Heating Degree Days 32    
Moisture  
Dew Point 32 °F    
Average Humidity 97    
Maximum Humidity 100    
Minimum Humidity 94    
Precipitation  
Precipitation 0.23 in - - ()
Sea Level Pressure  
Sea Level Pressure 29.74 in    
Wind  
Wind Speed 17 mph (North)    
Max Wind Speed 26 mph    
Max Gust Speed 33 mph    
Visibility 4 miles    
Events Rain , Snow    
Averages and records for this station are not official NWS values.
T = Trace of Precipitation, MM = Missing Value Source: NWS Daily Summary

Daily Weather History Graph

Daily Weather History Graph

Search for Another Location

Airport:

Trip Planner

Search our weather history database for the weather conditions in past years. The results will help you decide how hot, cold, wet, or windy it might be!

Date:

Astronomy

Mar. 10, 2013 Rise Set
Actual Time 7:36 AM CDT 7:17 PM CDT
Civil Twilight 7:08 AM CDT 7:45 PM CDT
Nautical Twilight 6:36 AM CDT 8:17 PM CDT
Astronomical Twilight 6:03 AM CDT 8:50 PM CDT
Moon 6:37 AM CDT (3/10) 6:26 PM CDT (3/10)
Length of Visible Light 12h 36m
Length of Day
11h 41m
Waning Crescent, 2% of the Moon is Illuminated
Mar 10
Waning Crescent
Mar 11
New
Mar 19
First Quarter
Mar 27
Full
Apr 2
Last Quarter

Hourly Weather History & Observations

Time (CDT) Temp. Windchill Dew Point Humidity Pressure Visibility Wind Dir Wind Speed Gust Speed Precip Events Conditions
12:15 AM 37.4 °F 30.3 °F 37.4 °F 100% 29.68 in 0.8 mi NNW 10.4 mph - 0.06 in Rain Heavy Rain
12:35 AM 37.4 °F 29.8 °F 37.4 °F 100% 29.69 in 3.0 mi North 11.5 mph - 0.10 in Rain Rain
12:55 AM 38.1 °F 30.2 °F 37.8 °F 99% 29.69 in 3.0 mi North 12.7 mph - 0.10 in   Overcast
1:15 AM 37.8 °F 30.2 °F 37.6 °F 99% 29.71 in 5.0 mi North 11.5 mph - N/A   Overcast
1:35 AM 36.0 °F 25.3 °F 35.8 °F 99% 29.68 in 5.0 mi North 19.6 mph - N/A Rain Light Rain
1:55 AM 35.6 °F 25.5 °F 35.2 °F 99% 29.69 in 7.0 mi North 17.3 mph 20.7 mph N/A Rain Light Rain
3:15 AM 35.1 °F 24.5 °F 34.7 °F 99% 29.67 in 7.0 mi North 18.4 mph 24.2 mph N/A   Overcast
3:35 AM 34.7 °F 24.7 °F 34.0 °F 97% 29.66 in 10.0 mi North 16.1 mph - N/A   Overcast
3:55 AM 34.7 °F 24.7 °F 33.8 °F 97% 29.68 in 10.0 mi North 16.1 mph 19.6 mph N/A   Overcast
4:15 AM 34.3 °F 24.2 °F 33.4 °F 97% 29.67 in 7.0 mi North 16.1 mph 21.9 mph N/A   Overcast
4:35 AM 34.2 °F 23.3 °F 33.3 °F 97% 29.68 in 7.0 mi North 18.4 mph - N/A   Overcast
4:55 AM 34.0 °F 23.4 °F 33.1 °F 96% 29.70 in 7.0 mi North 17.3 mph - N/A   Overcast
5:15 AM 34.0 °F 23.4 °F 33.1 °F 96% 29.70 in 5.0 mi North 17.3 mph - N/A   Overcast
5:35 AM 34.0 °F 23.4 °F 33.1 °F 96% 29.70 in 10.0 mi North 17.3 mph - N/A   Overcast
5:55 AM 34.0 °F 22.7 °F 33.1 °F 96% 29.68 in 10.0 mi North 19.6 mph 24.2 mph N/A   Overcast
6:15 AM 33.8 °F 23.5 °F 32.9 °F 96% 29.70 in 7.0 mi North 16.1 mph 23.0 mph N/A   Overcast
7:35 AM 33.4 °F 22.0 °F 32.9 °F 98% 29.74 in 3.0 mi North 19.6 mph - N/A   Overcast
7:55 AM 33.4 °F 22.0 °F 32.9 °F 98% 29.74 in 3.0 mi North 19.6 mph 25.3 mph N/A   Overcast
8:15 AM 33.4 °F 21.7 °F 32.7 °F 97% 29.73 in 4.0 mi North 20.7 mph 24.2 mph N/A   Overcast
8:35 AM 33.4 °F 22.7 °F 32.7 °F 97% 29.78 in 5.0 mi North 17.3 mph 24.2 mph N/A   Light Drizzle
8:55 AM 33.4 °F 22.0 °F 32.5 °F 96% 29.77 in 2.0 mi North 19.6 mph 25.3 mph 0.01 in Rain Rain
9:15 AM 33.3 °F 22.8 °F 32.7 °F 98% 29.80 in 2.0 mi North 16.1 mph 23.0 mph 0.01 in Rain Light Rain
9:35 AM 33.3 °F 20.1 °F 32.5 °F 97% 29.74 in 2.0 mi North 26.5 mph 32.2 mph 0.01 in Rain Light Rain
9:55 AM 32.9 °F 22.8 °F 32.4 °F 98% 29.75 in 2.5 mi North 15.0 mph 33.4 mph 0.04 in Rain Light Rain
10:15 AM 32.9 °F 21.0 °F 32.2 °F 97% 29.74 in 5.0 mi North 20.7 mph 28.8 mph N/A   Overcast
10:35 AM 33.1 °F 21.9 °F 32.2 °F 96% 29.77 in 10.0 mi NNE 18.4 mph 27.6 mph N/A   Overcast
10:55 AM 33.3 °F 22.5 °F 32.2 °F 96% 29.78 in 4.0 mi North 17.3 mph 24.2 mph N/A Rain Light Rain
11:15 AM 33.1 °F 21.5 °F 32.2 °F 96% 29.75 in 4.0 mi North 19.6 mph 27.6 mph 0.01 in Rain Rain
11:35 AM 33.3 °F 22.8 °F 32.2 °F 96% 29.77 in 5.0 mi NNE 16.1 mph 21.9 mph 0.02 in Rain Light Rain
11:55 AM 32.9 °F 22.8 °F 32.0 °F 96% 29.75 in 2.5 mi North 15.0 mph 20.7 mph 0.03 in Snow Light Snow
12:15 PM 32.7 °F 21.4 °F 32.0 °F 97% 29.74 in 1.8 mi North 18.4 mph 23.0 mph N/A Snow Light Snow
12:35 PM 32.9 °F 22.4 °F 32.0 °F 96% 29.75 in 5.0 mi North 16.1 mph 21.9 mph N/A Rain Light Rain
12:55 PM 32.9 °F 24.1 °F 32.0 °F 96% 29.74 in 5.0 mi North 11.5 mph 19.6 mph N/A Snow Light Snow
1:15 PM 32.9 °F 22.8 °F 32.0 °F 96% 29.76 in 7.0 mi North 15.0 mph - N/A Rain Light Rain
1:35 PM 32.9 °F 23.2 °F 32.0 °F 96% 29.75 in 5.0 mi North 13.8 mph - N/A Rain Light Rain
1:55 PM 32.9 °F 22.8 °F 32.0 °F 96% 29.74 in 4.0 mi North 15.0 mph 20.7 mph 0.01 in Snow Light Snow
2:15 PM 32.9 °F 22.4 °F 32.0 °F 96% 29.71 in 5.0 mi North 16.1 mph - 0.01 in Snow Light Snow
2:35 PM 32.5 °F 21.5 °F 32.0 °F 98% 29.71 in 4.0 mi North 17.3 mph 23.0 mph 0.02 in Snow Light Snow
2:55 PM 32.7 °F 22.1 °F 32.0 °F 97% 29.71 in 4.0 mi North 16.1 mph 21.9 mph 0.03 in Snow Light Snow
3:15 PM 32.5 °F 22.3 °F 32.0 °F 98% 29.72 in 1.0 mi North 15.0 mph 21.9 mph 0.01 in Rain Rain
3:35 PM 32.2 °F 21.1 °F 32.0 °F 99% 29.72 in 1.0 mi North 17.3 mph - 0.01 in Snow Light Snow
3:55 PM 32.2 °F 21.4 °F 32.0 °F 99% 29.72 in 0.5 mi North 16.1 mph - 0.01 in Snow Snow
4:15 PM 32.2 °F 21.1 °F 32.0 °F 99% 29.73 in 0.5 mi North 17.3 mph 21.9 mph N/A Snow Snow
4:35 PM 32.2 °F 20.4 °F 32.0 °F 99% 29.72 in 0.5 mi North 19.6 mph 26.5 mph N/A Snow Snow
4:55 PM 32.2 °F 20.7 °F 32.0 °F 99% 29.73 in 0.5 mi North 18.4 mph 24.2 mph N/A Snow Light Snow
5:15 PM 32.0 °F 20.8 °F 31.8 °F 99% 29.73 in 0.8 mi NNW 17.3 mph - N/A Snow Light Snow
5:35 PM 32.0 °F 19.8 °F 31.1 °F 96% 29.72 in 0.8 mi North 20.7 mph 28.8 mph N/A Snow Light Snow
5:55 PM 31.8 °F 19.3 °F 30.9 °F 96% 29.73 in 1.0 mi NNW 21.9 mph 26.5 mph N/A Snow Light Snow
6:15 PM 31.6 °F 19.3 °F 30.7 °F 96% 29.73 in 1.0 mi NNW 20.7 mph 25.3 mph N/A Snow Light Snow
6:35 PM 31.5 °F 19.1 °F 30.6 °F 96% 29.74 in 1.8 mi NNW 20.7 mph 27.6 mph N/A Snow Light Snow
6:55 PM 31.1 °F 18.9 °F 30.2 °F 96% 29.74 in 0.5 mi NNW 19.6 mph 29.9 mph N/A Snow Light Snow
7:15 PM 30.7 °F 17.8 °F 29.8 °F 96% 29.75 in 0.8 mi NNW 21.9 mph 29.9 mph N/A Snow Light Snow
7:35 PM 30.2 °F 17.4 °F 29.3 °F 96% 29.76 in 1.2 mi NNW 20.7 mph 27.6 mph N/A Snow Light Snow
7:55 PM 30.2 °F 17.4 °F 29.3 °F 96% 29.76 in 1.0 mi NNW 20.7 mph 29.9 mph N/A Snow Snow
8:15 PM 30.0 °F 16.6 °F 29.3 °F 97% 29.75 in 1.0 mi NNW 23.0 mph 29.9 mph N/A Snow Snow
8:35 PM 30.0 °F 16.9 °F 29.1 °F 96% 29.76 in 1.0 mi NNW 21.9 mph 26.5 mph N/A Snow Snow
8:55 PM 29.8 °F 17.0 °F 29.1 °F 97% 29.76 in 1.0 mi NNW 20.7 mph 27.6 mph N/A Snow Snow
9:15 PM 29.8 °F 16.3 °F 29.1 °F 97% 29.77 in 1.0 mi NNW 23.0 mph 27.6 mph N/A Snow Light Snow
9:35 PM 29.7 °F 16.7 °F 28.8 °F 96% 29.77 in 1.2 mi NNW 20.7 mph 26.5 mph N/A Snow Light Snow
9:55 PM 29.3 °F 15.9 °F 28.4 °F 96% 29.77 in 1.5 mi NNW 21.9 mph 27.6 mph N/A Snow Light Snow
10:15 PM 29.3 °F 16.2 °F 28.4 °F 96% 29.77 in 1.5 mi NNW 20.7 mph 26.5 mph N/A Snow Light Snow
10:35 PM 29.1 °F 15.7 °F 28.0 °F 96% 29.78 in 1.8 mi NNW 21.9 mph 28.8 mph N/A Snow Light Snow
10:55 PM 29.1 °F 16.0 °F 28.0 °F 96% 29.79 in 2.5 mi NNW 20.7 mph 28.8 mph N/A Snow Light Snow
11:15 PM 28.6 °F 15.3 °F 27.3 °F 95% 29.79 in 2.5 mi NNW 20.7 mph 28.8 mph N/A Snow Light Snow
11:35 PM 28.2 °F 15.2 °F 27.1 °F 96% 29.79 in 1.5 mi NNW 19.6 mph 29.9 mph N/A Snow Light Snow
12:15 AM 27.5 °F 13.9 °F 26.2 °F 95% 29.79 in 2.0 mi NNW 20.7 mph 27.6 mph N/A Snow Light Snow
12:35 AM 27.5 °F 14.2 °F 26.1 °F 94% 29.79 in 3.0 mi NNW 19.6 mph 25.3 mph N/A   Overcast
12:55 AM 27.5 °F 13.9 °F 26.2 °F 95% 29.79 in 4.0 mi NNW 20.7 mph 28.8 mph N/A   Overcast